Location: Axtheid
(49.6213°N, 11.8205°E)
Time: 15:48:07
(UTC+00:00)

Envisat - Pass Details

Date: 05 October 2022
Orbit: 763 x 765 km, 98.2° (Epoch: 30 November)

Event Time Altitude Azimuth Distance (km) Brightness Sun altitude
Rises 04:21:34 0° 9° (N) 3,247 6.4 -10.0°
Reaches altitude 10° 04:23:57 10° 4° (N) 2,316 5.6 -9.6°
Maximum altitude 04:28:48 47° 292° (WNW) 1,016 3.3 -8.8°
Drops below altitude 10° 04:33:38 10° 220° (SW) 2,299 5.1 -8.1°
Sets 04:36:00 0° 214° (SW) 3,221 5.9 -7.7°
